User: anonymous   Login
Location: Newark
(3.1475°N, 101.6933°E)
Time: 14:28:28
(UTC+00:00)
Language:

Envisat - Orbit

View from above orbital plane
View from above orbital plane
View from above satellite
View from above satellite

Ground track
Ground track

The orbit data is extracted from the following two-line orbital elements,

1 27386U 02009A   19289.21497289 -.00000011  00000-0  97110-5 0  9994
2 27386  98.1452 304.1024 0001161  92.5421 335.9364 14.37959741923370
Epoch (UTC): 16 October 2019 05:09:33
Eccentricity: 0.0001161
inclination: 98.1452°
perigee height: 764 km
apogee height: 766 km
right ascension of ascending node: 304.1024°
argument of perigee: 92.5421°
revolutions per day: 14.37959741
mean anomaly at epoch: 335.9364°
orbit number at epoch: 92337

The dashed part of the orbit path shows where the satellite is in the earth's shadow,  

DLR